TDRS 11

Last updated on May 22, 2019, 3:12 a.m. UTC

1 39070U 13004A   19140.23162744  .00000067  00000-0  00000-0 0  9994
2 39070   4.4122 329.6222 0003366  53.0296 123.9801  1.00276296 23061
UTC
Height (km)
Latitude
Longitude
Inclination
Orbital Period
UTC large
Height (km)
Speed (km/s)
/
Latitude / Longitude
Inclination (degrees)
Orbital Period (minutes)
Azimuth
Elevation
Range (km)
Doppler Factor
iOS Compass Heading
iOS Angle

Next 30 passes for location: Hong Kong

Rise time Rise Azimuth (degrees) Set time Set Azimuth (degrees) Duration Max altitude (degrees)

No matching passes for this satellites